When you browse on this site, cookies collect data to enhance your experience and personalize the content and advertising you see.
Visit our Privacy Policy to learn more. By continuing to use the site, you agree to this use of cookies and data.
  • en Belgique
  • Liste des pays
  • À 7 jours
  • Température de l'eau
  • Carte satellitaire
  • Carte météo
  • Widgets météo
  • user-avatar
    Se connecter

    Météo par heure à Vazhzhova

    Ce jour, 24 Avril, Mercredi

    Heure Température Précipitation Vent Pression Humidité
    00:00 +12°C° 0 mm 2 m/s 752 mmHg 58%
    01:00 +12°C° 0 mm 2 m/s 752 mmHg 60%
    02:00 +12°C° 0 mm 2 m/s 752 mmHg 60%
    03:00 +10°C° 0 mm 2 m/s 752 mmHg 62%
    04:00 +10°C° 0 mm 2 m/s 752 mmHg 64%
    05:00 +10°C° 0 mm 2 m/s 753 mmHg 66%
    06:00 +12°C° 0 mm 2 m/s 753 mmHg 61%
    07:00 +13°C° 0 mm 3 m/s 753 mmHg 56%
    08:00 +16°C° 0 mm 3 m/s 753 mmHg 49%
    09:00 +17°C° 0 mm 3 m/s 753 mmHg 45%
    10:00 +19°C° 0 mm 3 m/s 753 mmHg 42%
    11:00 +20°C° 0 mm 4 m/s 753 mmHg 38%
    12:00 +20°C° 0 mm 3 m/s 753 mmHg 37%
    13:00 +21°C° 0 mm 3 m/s 753 mmHg 36%
    14:00 +21°C° 0 mm 3 m/s 753 mmHg 35%
    15:00 +21°C° 0 mm 3 m/s 752 mmHg 37%
    16:00 +21°C° 0 mm 2 m/s 752 mmHg 40%
    17:00 +20°C° 0 mm 2 m/s 752 mmHg 43%
    18:00 +19°C° 0 mm 2 m/s 752 mmHg 46%
    19:00 +17°C° 0 mm 2 m/s 752 mmHg 50%
    20:00 +16°C° 0 mm 2 m/s 752 mmHg 54%
    21:00 +15°C° 0 mm 2 m/s 752 mmHg 56%
    22:00 +15°C° 0 mm 2 m/s 752 mmHg 58%
    23:00 +14°C° 0 mm 2 m/s 752 mmHg 59%

    Demain, 25 Avril, Jeudi

    Heure Température Précipitation Vent Pression Humidité
    00:00 +14°C° 0 mm 2 m/s 752 mmHg 61%
    01:00 +13°C° 0 mm 2 m/s 752 mmHg 62%
    02:00 +13°C° 0 mm 2 m/s 752 mmHg 63%
    03:00 +12°C° 0 mm 2 m/s 752 mmHg 64%
    04:00 +12°C° 0 mm 2 m/s 752 mmHg 65%
    05:00 +12°C° 0 mm 2 m/s 752 mmHg 66%
    06:00 +14°C° 0 mm 2 m/s 752 mmHg 61%
    07:00 +16°C° 0 mm 2 m/s 753 mmHg 55%
    08:00 +18°C° 0 mm 2 m/s 753 mmHg 50%
    09:00 +19°C° 0 mm 2 m/s 753 mmHg 45%
    10:00 +20°C° 0 mm 2 m/s 752 mmHg 41%
    11:00 +23°C° 0 mm 2 m/s 752 mmHg 37%
    12:00 +23°C° 0 mm 2 m/s 752 mmHg 36%
    13:00 +24°C° 0 mm 1 m/s 752 mmHg 35%
    14:00 +24°C° 0 mm 1 m/s 751 mmHg 34%
    15:00 +24°C° 0 mm 1 m/s 751 mmHg 36%
    16:00 +24°C° 0 mm 1 m/s 751 mmHg 38%
    17:00 +23°C° 0 mm 1 m/s 751 mmHg 40%
    18:00 +22°C° 0 mm 1 m/s 750 mmHg 44%
    19:00 +20°C° 0 mm 1 m/s 750 mmHg 48%
    20:00 +17°C° 0 mm 2 m/s 750 mmHg 51%
    21:00 +18°C° 0 mm 1 m/s 750 mmHg 53%
    22:00 +16°C° 0 mm 1 m/s 750 mmHg 55%
    23:00 +15°C° 0 mm 1 m/s 750 mmHg 56%

    Après-demain, 26 Avril, Vendredi

    Heure Température Précipitation Vent Pression Humidité
    00:00 +15°C° 0 mm 1 m/s 750 mmHg 58%
    01:00 +15°C° 0 mm 1 m/s 750 mmHg 60%
    02:00 +14°C° 0 mm 1 m/s 750 mmHg 62%
    03:00 +14°C° 0 mm 1 m/s 750 mmHg 62%
    04:00 +14°C° 0 mm 1 m/s 749 mmHg 63%
    05:00 +14°C° 0 mm 1 m/s 749 mmHg 64%
    06:00 +15°C° 0 mm 1 m/s 749 mmHg 63%
    07:00 +16°C° 0 mm 1 m/s 749 mmHg 62%
    08:00 +18°C° 0 mm 1 m/s 749 mmHg 60%
    09:00 +19°C° 0 mm 1 m/s 749 mmHg 56%
    10:00 +20°C° 0 mm 1 m/s 749 mmHg 52%
    11:00 +21°C° 0 mm 1 m/s 749 mmHg 48%
    12:00 +22°C° 0 mm 1 m/s 749 mmHg 45%
    13:00 +22°C° 0 mm 1 m/s 749 mmHg 41%
    14:00 +23°C° 0 mm 1 m/s 749 mmHg 38%
    15:00 +22°C° 0 mm 1 m/s 748 mmHg 42%
    16:00 +22°C° 0 mm 1 m/s 748 mmHg 45%
    17:00 +21°C° 0 mm 1 m/s 748 mmHg 49%
    18:00 +20°C° 0 mm 1 m/s 748 mmHg 51%
    19:00 +19°C° 0 mm 1 m/s 748 mmHg 54%
    20:00 +16°C° 0 mm 0 m/s 748 mmHg 56%
    21:00 +16°C° 0 mm 0 m/s 748 mmHg 57%
    22:00 +16°C° 0 mm 1 m/s 747 mmHg 58%
    23:00 +16°C° 0 mm 1 m/s 747 mmHg 58%

    27 Avril, Samedi

    Heure Température Précipitation Vent Pression Humidité
    00:00 +16°C° 0 mm 1 m/s 747 mmHg 59%
    01:00 +16°C° 0 mm 1 m/s 747 mmHg 60%
    02:00 +15°C° 0 mm 1 m/s 747 mmHg 60%
    03:00 +15°C° 0 mm 1 m/s 746 mmHg 62%
    04:00 +15°C° 0 mm 1 m/s 746 mmHg 64%
    05:00 +15°C° 0 mm 1 m/s 746 mmHg 65%
    06:00 +15°C° 0 mm 1 m/s 746 mmHg 65%
    07:00 +16°C° 0 mm 1 m/s 746 mmHg 64%
    08:00 +16°C° 0 mm 2 m/s 745 mmHg 64%
    09:00 +18°C° 0 mm 3 m/s 745 mmHg 56%
    10:00 +20°C° 0 mm 3 m/s 745 mmHg 48%
    11:00 +22°C° 0 mm 4 m/s 745 mmHg 40%
    12:00 +21°C° 0 mm 4 m/s 744 mmHg 44%
    13:00 +21°C° 0 mm 3 m/s 744 mmHg 48%
    14:00 +20°C° 0 mm 3 m/s 743 mmHg 53%
    15:00 +20°C° 0 mm 3 m/s 743 mmHg 54%
    16:00 +20°C° 0 mm 3 m/s 743 mmHg 55%
    17:00 +19°C° 0 mm 3 m/s 742 mmHg 57%
    18:00 +18°C° 0 mm 3 m/s 742 mmHg 60%
    19:00 +17°C° 0 mm 3 m/s 742 mmHg 64%
    20:00 +16°C° 0 mm 2 m/s 742 mmHg 68%
    21:00 +14°C° 0 mm 3 m/s 742 mmHg 71%
    22:00 +14°C° 0 mm 3 m/s 741 mmHg 73%
    23:00 +13°C° 0 mm 3 m/s 741 mmHg 76%

    28 Avril, Dimanche

    Heure Température Précipitation Vent Pression Humidité
    00:00 +13°C° 0 mm 3 m/s 741 mmHg 76%
    01:00 +12°C° 0 mm 3 m/s 741 mmHg 76%
    02:00 +13°C° 0 mm 2 m/s 740 mmHg 77%
    03:00 +12°C° 0.6 mm 3 m/s 740 mmHg 80%
    04:00 +12°C° 0.6 mm 3 m/s 740 mmHg 83%
    05:00 +12°C° 0.6 mm 3 m/s 739 mmHg 86%
    06:00 +13°C° 0.7 mm 4 m/s 739 mmHg 84%
    07:00 +13°C° 0.7 mm 4 m/s 739 mmHg 82%
    08:00 +14°C° 0.7 mm 4 m/s 739 mmHg 81%
    09:00 +14°C° 0.5 mm 4 m/s 738 mmHg 80%
    10:00 +14°C° 0.5 mm 4 m/s 738 mmHg 80%
    11:00 +15°C° 0.5 mm 4 m/s 738 mmHg 80%
    12:00 +16°C° 0.2 mm 3 m/s 738 mmHg 81%
    13:00 +16°C° 0.2 mm 3 m/s 738 mmHg 82%
    14:00 +16°C° 0.2 mm 2 m/s 739 mmHg 83%
    15:00 +14°C° 0.5 mm 4 m/s 739 mmHg 83%
    16:00 +14°C° 0.5 mm 6 m/s 739 mmHg 83%
    17:00 +12°C° 0.5 mm 7 m/s 739 mmHg 82%
    18:00 +11°C° 0 mm 7 m/s 740 mmHg 82%
    19:00 +10°C° 0 mm 7 m/s 741 mmHg 81%
    20:00 +9°C° 0 mm 6 m/s 741 mmHg 80%
    21:00 +8°C° 0 mm 6 m/s 742 mmHg 79%
    22:00 +7°C° 0 mm 6 m/s 742 mmHg 78%
    23:00 +7°C° 0 mm 6 m/s 743 mmHg 77%

    29 Avril, Lundi

    Heure Température Précipitation Vent Pression Humidité
    00:00 +4°C° 0 mm 6 m/s 744 mmHg 75%
    01:00 +3°C° 0 mm 6 m/s 744 mmHg 73%
    02:00 +2°C° 0 mm 6 m/s 744 mmHg 71%
    03:00 +2°C° 0 mm 6 m/s 745 mmHg 71%
    04:00 +1°C° 0 mm 6 m/s 745 mmHg 72%
    05:00 +1°C° 0 mm 6 m/s 746 mmHg 73%
    06:00 +2°C° 0 mm 6 m/s 746 mmHg 67%
    07:00 +3°C° 0 mm 7 m/s 747 mmHg 62%
    08:00 +4°C° 0 mm 7 m/s 747 mmHg 57%
    09:00 +5°C° 0 mm 7 m/s 747 mmHg 54%
    10:00 +6°C° 0 mm 7 m/s 747 mmHg 50%
    11:00 +6°C° 0 mm 7 m/s 748 mmHg 47%
    12:00 +8°C° 0 mm 7 m/s 748 mmHg 44%
    13:00 +8°C° 0 mm 6 m/s 748 mmHg 42%
    14:00 +8°C° 0 mm 6 m/s 748 mmHg 40%
    15:00 +8°C° 0 mm 6 m/s 748 mmHg 41%
    16:00 +8°C° 0 mm 5 m/s 748 mmHg 43%
    17:00 +7°C° 0 mm 5 m/s 748 mmHg 44%
    18:00 +6°C° 0 mm 4 m/s 748 mmHg 48%
    19:00 +5°C° 0 mm 4 m/s 749 mmHg 51%
    20:00 +4°C° 0 mm 3 m/s 749 mmHg 55%
    21:00 +3°C° 0 mm 3 m/s 749 mmHg 56%
    22:00 +3°C° 0 mm 3 m/s 750 mmHg 58%
    23:00 +2°C° 0 mm 3 m/s 750 mmHg 59%
    Voir plus